Year,Month,Day,Hour,Minute,Value (Times are PST for windspeed in km/hr)
2020,02,08,00,00,7.70
2020,02,08,00,01,6.70
2020,02,08,00,02,4.00
2020,02,08,00,03,9.00
2020,02,08,00,04,3.90
2020,02,08,00,05,6.50
2020,02,08,00,06,7.60
2020,02,08,00,07,6.90
2020,02,08,00,08,10.60
2020,02,08,00,09,11.40
2020,02,08,00,10,10.60
2020,02,08,00,11,11.30
2020,02,08,00,12,12.00
2020,02,08,00,13,9.70
2020,02,08,00,14,13.30
2020,02,08,00,15,10.90
2020,02,08,00,16,15.30
2020,02,08,00,17,11.60
2020,02,08,00,18,11.40
2020,02,08,00,19,10.80
2020,02,08,00,20,13.60
2020,02,08,00,21,11.70
2020,02,08,00,22,10.40
2020,02,08,00,23,12.10
2020,02,08,00,24,13.80
2020,02,08,00,25,12.20
2020,02,08,00,26,11.00
2020,02,08,00,27,14.20
2020,02,08,00,28,11.20
2020,02,08,00,29,13.00
2020,02,08,00,30,11.30
2020,02,08,00,31,12.50
2020,02,08,00,32,13.50
2020,02,08,00,33,15.60
2020,02,08,00,34,9.50
2020,02,08,00,35,7.90
2020,02,08,00,36,11.40
2020,02,08,00,37,11.50
2020,02,08,00,38,11.20
2020,02,08,00,39,10.00
2020,02,08,00,40,8.00
2020,02,08,00,41,9.70
2020,02,08,00,42,6.40
2020,02,08,00,43,7.60
2020,02,08,00,44,4.40
2020,02,08,00,45,7.50
2020,02,08,00,46,10.40
2020,02,08,00,47,13.30
2020,02,08,00,48,12.60
2020,02,08,00,49,10.10
2020,02,08,00,50,7.50
2020,02,08,00,51,10.30
2020,02,08,00,52,13.20
2020,02,08,00,53,11.30
2020,02,08,00,54,10.90
2020,02,08,00,55,6.70
2020,02,08,00,56,8.70
2020,02,08,00,57,7.70
2020,02,08,00,58,8.40
2020,02,08,00,59,6.70
2020,02,08,01,00,7.90
2020,02,08,01,01,8.00
2020,02,08,01,02,8.10
2020,02,08,01,03,7.60
2020,02,08,01,04,4.70
2020,02,08,01,05,11.00
2020,02,08,01,06,14.90
2020,02,08,01,07,9.90
2020,02,08,01,08,9.10
2020,02,08,01,09,7.70
2020,02,08,01,10,13.10
2020,02,08,01,11,9.10
2020,02,08,01,12,12.20
2020,02,08,01,13,8.50
2020,02,08,01,14,9.80
2020,02,08,01,15,14.30
2020,02,08,01,16,14.20
2020,02,08,01,17,13.90
2020,02,08,01,18,8.90
2020,02,08,01,19,6.10
2020,02,08,01,20,8.40
2020,02,08,01,21,12.70
2020,02,08,01,22,14.20
2020,02,08,01,23,18.90
2020,02,08,01,24,10.00
2020,02,08,01,25,11.40
2020,02,08,01,26,13.80
2020,02,08,01,27,21.00
2020,02,08,01,28,15.40
2020,02,08,01,29,16.70
2020,02,08,01,30,20.10
2020,02,08,01,31,15.50
2020,02,08,01,32,11.90
2020,02,08,01,33,9.50
2020,02,08,01,34,9.30
2020,02,08,01,35,9.10
2020,02,08,01,36,17.70
2020,02,08,01,37,13.40
2020,02,08,01,38,10.80
2020,02,08,01,39,9.80
2020,02,08,01,40,8.10
2020,02,08,01,41,13.80
2020,02,08,01,42,13.30
2020,02,08,01,43,10.80
2020,02,08,01,44,12.80
2020,02,08,01,45,7.20
2020,02,08,01,46,14.40
2020,02,08,01,47,13.50
2020,02,08,01,48,13.00
2020,02,08,01,49,11.30
2020,02,08,01,50,10.30
2020,02,08,01,51,10.10
2020,02,08,01,52,12.10
2020,02,08,01,53,17.90
2020,02,08,01,54,12.90
2020,02,08,01,55,15.00
2020,02,08,01,56,17.60
2020,02,08,01,57,12.60
2020,02,08,01,58,10.10
2020,02,08,01,59,12.50
2020,02,08,02,00,13.40
2020,02,08,02,01,15.90
2020,02,08,02,02,10.20
2020,02,08,02,03,12.50
2020,02,08,02,04,16.70
2020,02,08,02,05,11.90
2020,02,08,02,06,10.80
2020,02,08,02,07,14.90
2020,02,08,02,08,11.30
2020,02,08,02,09,7.40
2020,02,08,02,10,6.90
2020,02,08,02,11,6.50
2020,02,08,02,12,17.30
2020,02,08,02,13,15.80
2020,02,08,02,14,13.50
2020,02,08,02,15,11.00
2020,02,08,02,16,15.60
2020,02,08,02,17,19.00
2020,02,08,02,18,16.00
2020,02,08,02,19,15.90
2020,02,08,02,20,12.40
2020,02,08,02,21,11.00
2020,02,08,02,22,12.70
2020,02,08,02,23,11.80
2020,02,08,02,24,15.00
2020,02,08,02,25,13.00
2020,02,08,02,26,10.80
2020,02,08,02,27,12.60
2020,02,08,02,28,11.70
2020,02,08,02,29,19.10
2020,02,08,02,30,11.70
2020,02,08,02,31,9.70
2020,02,08,02,32,12.20
2020,02,08,02,33,12.80
2020,02,08,02,34,11.30
2020,02,08,02,35,12.10
2020,02,08,02,36,13.00
2020,02,08,02,37,8.30
2020,02,08,02,38,8.50
2020,02,08,02,39,12.90
2020,02,08,02,40,9.60
2020,02,08,02,41,13.00
2020,02,08,02,42,12.90
2020,02,08,02,43,9.40
2020,02,08,02,44,16.50
2020,02,08,02,45,12.00
2020,02,08,02,46,14.10
2020,02,08,02,47,11.80
2020,02,08,02,48,11.10
2020,02,08,02,49,14.60
2020,02,08,02,50,12.00
2020,02,08,02,51,9.90
2020,02,08,02,52,6.50
2020,02,08,02,53,12.00
2020,02,08,02,54,17.60
2020,02,08,02,55,11.10
2020,02,08,02,56,8.50
2020,02,08,02,57,11.40
2020,02,08,02,58,13.30
2020,02,08,02,59,14.50
2020,02,08,03,00,16.00
2020,02,08,03,01,20.90
2020,02,08,03,02,12.10
2020,02,08,03,03,14.90
2020,02,08,03,04,14.60
2020,02,08,03,05,8.50
2020,02,08,03,06,12.00
2020,02,08,03,07,17.90
2020,02,08,03,08,13.50
2020,02,08,03,09,12.60
2020,02,08,03,10,16.10
2020,02,08,03,11,14.50
2020,02,08,03,12,16.70
2020,02,08,03,13,13.60
2020,02,08,03,14,13.90
2020,02,08,03,15,13.50
2020,02,08,03,16,13.00
2020,02,08,03,17,7.50
2020,02,08,03,18,13.90
2020,02,08,03,19,15.80
2020,02,08,03,20,15.70
2020,02,08,03,21,14.50
2020,02,08,03,22,12.50
2020,02,08,03,23,8.90
2020,02,08,03,24,15.90
2020,02,08,03,25,14.20
2020,02,08,03,26,13.20
2020,02,08,03,27,15.40
2020,02,08,03,28,12.50
2020,02,08,03,29,14.60
2020,02,08,03,30,11.90
2020,02,08,03,31,14.60
2020,02,08,03,32,17.00
2020,02,08,03,33,10.10
2020,02,08,03,34,12.00
2020,02,08,03,35,9.90
2020,02,08,03,36,17.10
2020,02,08,03,37,16.10
2020,02,08,03,38,15.00
2020,02,08,03,39,11.50
2020,02,08,03,40,12.90
2020,02,08,03,41,13.70
2020,02,08,03,42,19.70
2020,02,08,03,43,14.50
2020,02,08,03,44,12.90
2020,02,08,03,45,18.00
2020,02,08,03,46,9.20
2020,02,08,03,47,11.50
2020,02,08,03,48,7.50
2020,02,08,03,49,5.70
2020,02,08,03,50,12.20
2020,02,08,03,51,14.50
2020,02,08,03,52,14.50
2020,02,08,03,53,14.50
2020,02,08,03,54,14.50
2020,02,08,03,55,14.50
2020,02,08,03,56,14.50
2020,02,08,03,57,14.50
2020,02,08,03,58,14.50
2020,02,08,03,59,14.50
2020,02,08,04,00,14.50
2020,02,08,08,55,17.70
2020,02,08,08,56,24.20
2020,02,08,08,57,18.60
2020,02,08,08,58,22.10
2020,02,08,08,59,22.80
2020,02,08,09,00,18.80
2020,02,08,09,01,27.20
2020,02,08,09,02,20.40
2020,02,08,09,03,23.60
2020,02,08,09,04,21.70
2020,02,08,09,05,16.50
2020,02,08,09,06,19.30
2020,02,08,09,07,16.60
2020,02,08,09,08,22.90
2020,02,08,09,09,19.00
2020,02,08,09,10,10.70
2020,02,08,09,11,16.20
2020,02,08,09,12,20.00
2020,02,08,09,13,26.40
2020,02,08,09,14,24.40
2020,02,08,09,15,20.40
2020,02,08,09,16,19.10
2020,02,08,09,17,14.60
2020,02,08,09,18,17.00
2020,02,08,09,19,23.40
2020,02,08,09,20,30.40
2020,02,08,09,21,24.80
2020,02,08,09,22,19.20
2020,02,08,09,23,13.00
2020,02,08,09,24,17.20
2020,02,08,09,25,22.00
2020,02,08,09,26,19.60
2020,02,08,09,27,24.10
2020,02,08,09,28,15.60
2020,02,08,09,29,16.20
2020,02,08,09,30,12.50
2020,02,08,09,31,15.70
2020,02,08,09,32,19.70
2020,02,08,09,33,14.70
2020,02,08,09,34,21.90
2020,02,08,09,35,20.10
2020,02,08,09,36,20.30
2020,02,08,09,37,19.50
2020,02,08,09,38,20.40
2020,02,08,09,39,18.90
2020,02,08,09,40,22.30
2020,02,08,09,41,25.10
2020,02,08,09,42,19.40
2020,02,08,09,43,19.80
2020,02,08,09,44,27.10
2020,02,08,09,45,28.20
2020,02,08,09,46,16.70
2020,02,08,09,47,17.40
2020,02,08,09,48,24.80
2020,02,08,09,49,14.80
2020,02,08,09,50,23.10
2020,02,08,09,51,24.20
2020,02,08,09,52,17.30
2020,02,08,09,53,25.10
2020,02,08,09,54,24.50
2020,02,08,09,55,13.00
2020,02,08,09,56,21.00
2020,02,08,09,57,20.30
2020,02,08,09,58,20.30
2020,02,08,09,59,22.50
2020,02,08,10,00,15.00
2020,02,08,10,01,22.00
2020,02,08,10,02,28.60
2020,02,08,10,03,23.40
2020,02,08,10,04,26.00
2020,02,08,10,05,28.10
2020,02,08,10,06,28.30
2020,02,08,10,07,28.10
2020,02,08,10,08,20.70
2020,02,08,10,09,20.00
2020,02,08,10,10,22.40
2020,02,08,10,11,17.20
2020,02,08,10,12,21.50
2020,02,08,10,13,27.10
2020,02,08,10,14,23.10
2020,02,08,10,15,22.30
2020,02,08,10,16,23.40
2020,02,08,10,17,16.80
2020,02,08,10,18,21.50
2020,02,08,10,19,17.80
2020,02,08,10,20,17.20
2020,02,08,10,21,21.00
2020,02,08,10,22,20.30
2020,02,08,10,23,19.90
2020,02,08,10,24,29.30
2020,02,08,10,25,21.20
2020,02,08,10,26,27.00
2020,02,08,10,27,23.00
2020,02,08,10,28,23.50
2020,02,08,10,29,21.50
2020,02,08,10,30,16.80
2020,02,08,10,31,28.50
2020,02,08,10,32,23.70
2020,02,08,10,33,25.70
2020,02,08,10,34,21.60
2020,02,08,10,35,24.20
2020,02,08,10,36,21.90
2020,02,08,10,37,16.30
2020,02,08,10,38,19.20
2020,02,08,10,39,25.70
2020,02,08,10,40,17.40
2020,02,08,10,41,25.30
2020,02,08,10,42,26.50
2020,02,08,10,43,25.20
2020,02,08,10,44,16.20
2020,02,08,10,45,22.40
2020,02,08,10,46,21.90
2020,02,08,10,47,20.80
2020,02,08,10,48,15.90
2020,02,08,10,49,17.40
2020,02,08,10,50,24.40
2020,02,08,10,51,25.40
2020,02,08,10,52,28.40
2020,02,08,10,53,18.20
2020,02,08,10,54,16.90
2020,02,08,10,55,18.00
2020,02,08,10,56,16.70
2020,02,08,10,57,13.30
2020,02,08,10,58,21.60
2020,02,08,10,59,23.90
2020,02,08,11,00,18.40
2020,02,08,11,01,21.40
2020,02,08,11,02,23.50
2020,02,08,11,03,24.00
2020,02,08,11,04,23.00
2020,02,08,11,05,20.40
2020,02,08,11,06,20.50
2020,02,08,11,07,17.10
2020,02,08,11,08,27.30
2020,02,08,11,09,21.00
2020,02,08,11,10,16.90
2020,02,08,11,11,21.70
2020,02,08,11,12,25.50
2020,02,08,11,13,23.40
2020,02,08,11,14,20.60
2020,02,08,11,15,24.50
2020,02,08,11,16,29.70
2020,02,08,11,17,23.40
2020,02,08,11,18,25.70
2020,02,08,11,19,22.30
2020,02,08,11,20,15.70
2020,02,08,11,21,18.70
2020,02,08,11,22,23.90
2020,02,08,11,23,22.20
2020,02,08,11,24,17.10
2020,02,08,11,25,23.00
2020,02,08,11,26,28.20
2020,02,08,11,27,15.60
2020,02,08,11,28,23.90
2020,02,08,11,29,17.70
2020,02,08,11,30,25.40
2020,02,08,11,31,17.50
2020,02,08,11,32,29.10
2020,02,08,11,33,24.80
2020,02,08,11,34,19.10
2020,02,08,11,35,23.70
2020,02,08,11,36,24.40
2020,02,08,11,37,20.70
2020,02,08,11,38,25.50
2020,02,08,11,39,23.30
2020,02,08,11,40,22.90
2020,02,08,11,41,26.90
2020,02,08,11,42,26.10
2020,02,08,11,43,22.90
2020,02,08,11,44,18.00
2020,02,08,11,45,17.40
2020,02,08,11,46,29.80
2020,02,08,11,47,28.40
2020,02,08,11,48,28.80
2020,02,08,11,49,23.30
2020,02,08,11,50,24.80
2020,02,08,11,51,18.50
2020,02,08,11,52,24.60
2020,02,08,11,53,28.60
2020,02,08,11,54,21.20
2020,02,08,11,55,14.80
2020,02,08,11,56,26.10
2020,02,08,11,57,21.80
2020,02,08,11,58,21.70
2020,02,08,11,59,26.10
2020,02,08,12,00,17.10
2020,02,08,12,01,25.90
2020,02,08,12,02,23.90
2020,02,08,12,03,21.70
2020,02,08,12,04,24.60
2020,02,08,12,05,23.30
2020,02,08,12,06,20.20
2020,02,08,12,07,15.90
2020,02,08,12,08,13.50
2020,02,08,12,09,26.90
2020,02,08,12,10,18.10
2020,02,08,12,11,23.20
2020,02,08,12,12,22.90
2020,02,08,12,13,27.30
2020,02,08,12,14,22.40
2020,02,08,12,15,20.70
2020,02,08,12,16,17.50
2020,02,08,12,17,13.30
2020,02,08,12,18,11.30
2020,02,08,12,19,17.90
2020,02,08,12,20,25.90
2020,02,08,12,21,22.30
2020,02,08,12,22,25.50
2020,02,08,12,23,22.00
2020,02,08,12,24,21.10
2020,02,08,12,25,18.10
2020,02,08,12,26,22.80
2020,02,08,12,27,21.20
2020,02,08,12,28,21.70
2020,02,08,12,29,20.10
2020,02,08,12,30,19.40
2020,02,08,12,31,28.00
2020,02,08,12,32,23.30
2020,02,08,12,33,33.80
2020,02,08,12,34,19.30
2020,02,08,12,35,21.00
2020,02,08,12,36,23.90
2020,02,08,12,37,21.60
2020,02,08,12,38,22.70
2020,02,08,12,39,24.10
2020,02,08,12,40,16.80
2020,02,08,12,41,20.90
2020,02,08,12,42,24.50
2020,02,08,12,43,26.40
2020,02,08,12,44,20.40
2020,02,08,12,45,20.00
2020,02,08,12,46,20.50
2020,02,08,12,47,18.10
2020,02,08,12,48,22.80
2020,02,08,12,49,27.40
2020,02,08,12,50,23.00
2020,02,08,12,51,21.50
2020,02,08,12,52,17.10
2020,02,08,12,53,16.90
2020,02,08,12,54,17.90
2020,02,08,12,55,17.90
2020,02,08,12,56,18.00
2020,02,08,12,57,21.30
2020,02,08,12,58,16.20
2020,02,08,12,59,22.50
2020,02,08,13,00,20.40
2020,02,08,13,01,21.10
2020,02,08,13,02,18.70
2020,02,08,13,03,17.70
2020,02,08,13,04,24.20
2020,02,08,13,05,14.60
2020,02,08,13,06,16.30
2020,02,08,13,07,30.20
2020,02,08,13,08,26.90
2020,02,08,13,09,22.20
2020,02,08,13,10,18.90
2020,02,08,13,11,29.50
2020,02,08,13,12,21.00
2020,02,08,13,13,27.00
2020,02,08,13,14,27.10
2020,02,08,13,15,22.90
2020,02,08,13,16,24.30
2020,02,08,13,17,25.70
2020,02,08,13,18,25.60
2020,02,08,13,19,15.90
2020,02,08,13,20,15.20
2020,02,08,13,21,20.70
2020,02,08,13,22,28.00
2020,02,08,13,23,19.60
2020,02,08,13,24,23.40
2020,02,08,13,25,13.30
2020,02,08,13,26,23.20
2020,02,08,13,27,20.80
2020,02,08,13,28,14.50
2020,02,08,13,29,21.10
2020,02,08,13,30,29.20
2020,02,08,13,31,19.10
2020,02,08,13,32,22.50
2020,02,08,13,33,22.50
2020,02,08,13,34,13.60
2020,02,08,13,35,22.20
2020,02,08,13,36,13.50
2020,02,08,13,37,21.60
2020,02,08,13,38,22.80
2020,02,08,13,39,17.50
2020,02,08,13,40,21.40
2020,02,08,13,41,24.50
2020,02,08,13,42,29.30
2020,02,08,13,43,20.50
2020,02,08,13,44,21.90
2020,02,08,13,45,12.70
2020,02,08,13,46,22.70
2020,02,08,13,47,26.50
2020,02,08,13,48,24.50
2020,02,08,13,49,25.30
2020,02,08,13,50,24.50
2020,02,08,13,51,21.10
2020,02,08,13,52,13.90
2020,02,08,13,53,9.70
2020,02,08,13,54,14.30
2020,02,08,13,55,16.00
2020,02,08,13,56,17.10
2020,02,08,13,57,19.50
2020,02,08,13,58,29.10
2020,02,08,13,59,29.60
2020,02,08,14,00,26.70
2020,02,08,14,01,19.10
2020,02,08,14,02,22.20
2020,02,08,14,03,26.20
2020,02,08,14,04,22.00
2020,02,08,14,05,28.00
2020,02,08,14,06,29.00
2020,02,08,14,07,27.70
2020,02,08,14,08,30.00
2020,02,08,14,09,23.50
2020,02,08,14,10,24.70
2020,02,08,14,11,21.10
2020,02,08,14,12,12.50
2020,02,08,14,13,15.90
2020,02,08,14,14,19.40
2020,02,08,14,15,16.00
2020,02,08,14,16,20.70
2020,02,08,14,17,22.60
2020,02,08,14,18,16.40
2020,02,08,14,19,14.90
2020,02,08,14,20,8.90
2020,02,08,14,21,12.40
2020,02,08,14,22,19.00
2020,02,08,14,23,19.30
2020,02,08,14,24,20.80
2020,02,08,14,25,25.40
2020,02,08,14,26,20.30
2020,02,08,14,27,20.80
2020,02,08,14,28,18.30
2020,02,08,14,29,19.70
2020,02,08,14,30,16.00
2020,02,08,14,31,17.90
2020,02,08,14,32,20.80
2020,02,08,14,33,20.30
2020,02,08,14,34,14.60
2020,02,08,14,35,11.20
2020,02,08,14,36,13.50
2020,02,08,14,37,12.80
2020,02,08,14,38,20.70
2020,02,08,14,39,16.20
2020,02,08,14,40,17.00
2020,02,08,14,41,19.00
2020,02,08,14,42,19.90
2020,02,08,14,43,13.00
2020,02,08,14,44,16.40
2020,02,08,14,45,12.10
2020,02,08,14,46,21.00
2020,02,08,14,47,16.50
2020,02,08,14,48,14.10
2020,02,08,14,49,19.10
2020,02,08,14,50,21.90
2020,02,08,14,51,17.40
2020,02,08,14,52,14.30
2020,02,08,14,53,13.90
2020,02,08,14,54,17.70
2020,02,08,14,55,15.90
2020,02,08,14,56,16.60
2020,02,08,14,57,14.40
2020,02,08,14,58,18.90
2020,02,08,14,59,15.60
2020,02,08,15,00,22.20
2020,02,08,15,01,21.60
2020,02,08,15,02,14.80
2020,02,08,15,03,12.50
2020,02,08,15,04,9.50
2020,02,08,15,05,7.30
2020,02,08,15,06,12.20
2020,02,08,15,07,12.10
2020,02,08,15,08,18.90
2020,02,08,15,09,14.90
2020,02,08,15,10,23.50
2020,02,08,15,11,19.40
2020,02,08,15,12,18.90
2020,02,08,15,13,18.20
2020,02,08,15,14,15.10
2020,02,08,15,15,14.40
2020,02,08,15,16,13.90
2020,02,08,15,17,16.80
2020,02,08,15,18,19.40
2020,02,08,15,19,17.50
2020,02,08,15,20,14.20
2020,02,08,15,21,11.20
2020,02,08,15,22,13.30
2020,02,08,15,23,10.50
2020,02,08,15,24,16.10
2020,02,08,15,25,17.10
2020,02,08,15,26,17.00
2020,02,08,15,27,16.80
2020,02,08,15,28,19.40
2020,02,08,15,29,17.00
2020,02,08,15,30,17.40
2020,02,08,15,31,15.90
2020,02,08,15,32,18.30
2020,02,08,15,33,21.80
2020,02,08,15,34,19.80
2020,02,08,15,35,16.30
2020,02,08,15,36,15.10
2020,02,08,15,37,17.90
2020,02,08,15,38,20.40
2020,02,08,15,39,21.00
2020,02,08,15,40,19.90
2020,02,08,15,41,18.50
2020,02,08,15,42,13.70
2020,02,08,15,43,19.10
2020,02,08,15,44,17.90
2020,02,08,15,45,14.30
2020,02,08,15,46,5.80
2020,02,08,15,47,14.90
2020,02,08,15,48,19.10
2020,02,08,15,49,17.50
2020,02,08,15,50,12.00
2020,02,08,15,51,11.40
2020,02,08,15,52,8.80
2020,02,08,15,53,16.50
2020,02,08,15,54,16.20
2020,02,08,15,55,12.20
2020,02,08,15,56,9.70
2020,02,08,15,57,11.60
2020,02,08,15,58,14.10
2020,02,08,15,59,10.90
2020,02,08,16,00,14.70
2020,02,08,16,01,11.80
2020,02,08,16,02,16.30
2020,02,08,16,03,18.00
2020,02,08,16,04,16.30
2020,02,08,16,05,11.30
2020,02,08,16,06,14.20
2020,02,08,16,07,16.20
2020,02,08,16,08,11.40
2020,02,08,16,09,13.80
2020,02,08,16,10,12.20
2020,02,08,16,11,16.20
2020,02,08,16,12,11.90
2020,02,08,16,13,11.70
2020,02,08,16,14,15.10
2020,02,08,16,15,10.00
2020,02,08,16,16,8.90
2020,02,08,16,17,12.60
2020,02,08,16,18,16.50
2020,02,08,16,19,15.70
2020,02,08,16,20,12.70
2020,02,08,16,21,9.30
2020,02,08,16,22,19.20
2020,02,08,16,23,13.20
2020,02,08,16,24,17.40
2020,02,08,16,25,16.70
2020,02,08,16,26,14.40
2020,02,08,16,27,18.50
2020,02,08,16,28,18.40
2020,02,08,16,29,20.60
2020,02,08,16,30,13.80
2020,02,08,16,31,19.20
2020,02,08,16,32,11.80
2020,02,08,16,33,14.90
2020,02,08,16,34,15.40
2020,02,08,16,35,14.10
2020,02,08,16,36,17.20
2020,02,08,16,37,20.20
2020,02,08,16,38,17.70
2020,02,08,16,39,16.30
2020,02,08,16,40,19.00
2020,02,08,16,41,14.30
2020,02,08,16,42,17.90
2020,02,08,16,43,23.30
2020,02,08,16,44,23.20
2020,02,08,16,45,16.30
2020,02,08,16,46,20.60
2020,02,08,16,47,17.70
2020,02,08,16,48,16.00
2020,02,08,16,49,16.30
2020,02,08,16,50,20.90
2020,02,08,16,51,17.80
2020,02,08,16,52,19.60
2020,02,08,16,53,20.00
2020,02,08,16,54,15.50
2020,02,08,16,55,18.70
2020,02,08,16,56,15.90
2020,02,08,16,57,19.10
2020,02,08,16,58,18.50
2020,02,08,16,59,15.00
2020,02,08,17,00,19.50
2020,02,08,17,01,22.80
2020,02,08,17,02,23.30
2020,02,08,17,03,15.70
2020,02,08,17,04,16.90
2020,02,08,17,05,19.80
2020,02,08,17,06,19.90
2020,02,08,17,07,20.90
2020,02,08,17,08,19.80
2020,02,08,17,09,18.90
2020,02,08,17,10,17.20
2020,02,08,17,11,18.90
2020,02,08,17,12,19.00
2020,02,08,17,13,15.30
2020,02,08,17,14,16.70
2020,02,08,17,15,21.00
2020,02,08,17,16,13.60
2020,02,08,17,17,16.90
2020,02,08,17,18,17.40
2020,02,08,17,19,26.70
2020,02,08,17,20,16.00
2020,02,08,17,21,16.80
2020,02,08,17,22,17.20
2020,02,08,17,23,19.30
2020,02,08,17,24,23.70
2020,02,08,17,25,19.20
2020,02,08,17,26,18.10
2020,02,08,17,27,15.30
2020,02,08,17,28,24.30
2020,02,08,17,29,17.50
2020,02,08,17,30,19.10
2020,02,08,17,31,21.30
2020,02,08,17,32,21.40
2020,02,08,17,33,19.30
2020,02,08,17,34,24.00
2020,02,08,17,35,20.00
2020,02,08,17,36,22.10
2020,02,08,17,37,19.70
2020,02,08,17,38,22.50
2020,02,08,17,39,18.50
2020,02,08,17,40,22.50
2020,02,08,17,41,20.80
2020,02,08,17,42,19.60
2020,02,08,17,43,19.80
2020,02,08,17,44,27.90
2020,02,08,17,45,20.20
2020,02,08,17,46,22.10
2020,02,08,17,47,18.50
2020,02,08,17,48,19.20
2020,02,08,17,49,20.10
2020,02,08,17,50,23.10
2020,02,08,17,51,15.80
2020,02,08,17,52,23.20
2020,02,08,17,53,17.80
2020,02,08,17,54,17.60
2020,02,08,17,55,17.10
2020,02,08,17,56,16.70
2020,02,08,17,57,18.50
2020,02,08,17,58,22.30
2020,02,08,17,59,15.20
2020,02,08,18,00,19.30
2020,02,08,18,01,16.70
2020,02,08,18,02,16.10
2020,02,08,18,03,19.80
2020,02,08,18,04,15.70
2020,02,08,18,05,17.90
2020,02,08,18,06,22.10
2020,02,08,18,07,16.60
2020,02,08,18,08,17.60
2020,02,08,18,09,13.60
2020,02,08,18,10,18.30
2020,02,08,18,11,17.10
2020,02,08,18,12,14.60
2020,02,08,18,13,21.50
2020,02,08,18,14,16.10
2020,02,08,18,15,18.00
2020,02,08,18,16,14.90
2020,02,08,18,17,20.90
2020,02,08,18,18,15.10
2020,02,08,18,19,22.90
2020,02,08,18,20,14.30
2020,02,08,18,21,22.40
2020,02,08,18,22,21.90
2020,02,08,18,23,12.20
2020,02,08,18,24,13.20
2020,02,08,18,25,17.30
2020,02,08,18,26,17.20
2020,02,08,18,27,12.30
2020,02,08,18,28,13.70
2020,02,08,18,29,18.30
2020,02,08,18,30,13.20
2020,02,08,18,31,12.20
2020,02,08,18,32,17.00
2020,02,08,18,33,11.50
2020,02,08,18,34,17.20
2020,02,08,18,35,14.00
2020,02,08,18,36,13.40
2020,02,08,18,37,12.60
2020,02,08,18,38,16.00
2020,02,08,18,39,20.50
2020,02,08,18,40,16.80
2020,02,08,18,41,20.50
2020,02,08,18,42,12.10
2020,02,08,18,43,22.00
2020,02,08,18,44,15.30
2020,02,08,18,45,18.90
2020,02,08,18,46,16.70
2020,02,08,18,47,15.00
2020,02,08,18,48,13.10
2020,02,08,18,49,15.80
2020,02,08,18,50,16.70
2020,02,08,18,51,17.80
2020,02,08,18,52,13.40
2020,02,08,18,53,16.60
2020,02,08,18,54,15.30
2020,02,08,18,55,13.00
2020,02,08,18,56,18.70
2020,02,08,18,57,19.70
2020,02,08,18,58,17.70
2020,02,08,18,59,18.10
2020,02,08,19,00,11.20
2020,02,08,19,01,18.10
2020,02,08,19,02,14.80
2020,02,08,19,03,13.60
2020,02,08,19,04,13.40
2020,02,08,19,05,17.30
2020,02,08,19,06,10.70
2020,02,08,19,07,13.30
2020,02,08,19,08,12.20
2020,02,08,19,09,11.50
2020,02,08,19,10,9.60
2020,02,08,19,11,13.40
2020,02,08,19,12,19.90
2020,02,08,19,13,17.50
2020,02,08,19,14,12.10
2020,02,08,19,15,14.70
2020,02,08,19,16,15.40
2020,02,08,19,17,14.20
2020,02,08,19,18,9.40
2020,02,08,19,19,13.80
2020,02,08,19,20,6.30
2020,02,08,19,21,11.70
2020,02,08,19,22,8.80
2020,02,08,19,23,13.40
2020,02,08,19,24,14.90
2020,02,08,19,25,11.50
2020,02,08,19,26,10.50
2020,02,08,19,27,12.80
2020,02,08,19,28,12.10
2020,02,08,19,29,9.10
2020,02,08,19,30,11.20
2020,02,08,19,31,10.10
2020,02,08,19,32,13.00
2020,02,08,19,33,10.00
2020,02,08,19,34,9.30
2020,02,08,19,35,13.20
2020,02,08,19,36,9.70
2020,02,08,19,37,11.70
2020,02,08,19,38,8.10
2020,02,08,19,39,11.10
2020,02,08,19,40,14.90
2020,02,08,19,41,8.40
2020,02,08,19,42,13.60
2020,02,08,19,43,18.00
2020,02,08,19,44,10.30
2020,02,08,19,45,12.70
2020,02,08,19,46,12.50
2020,02,08,19,47,12.60
2020,02,08,19,48,18.20
2020,02,08,19,49,9.30
2020,02,08,19,50,14.90
2020,02,08,19,51,21.50
2020,02,08,19,52,16.40
2020,02,08,19,53,15.80
2020,02,08,19,54,10.10
2020,02,08,19,55,8.80
2020,02,08,19,56,14.00
2020,02,08,19,57,11.90
2020,02,08,19,58,17.70
2020,02,08,19,59,14.50
2020,02,08,20,00,14.60
2020,02,08,20,01,14.70
2020,02,08,20,02,13.90
2020,02,08,20,03,21.10
2020,02,08,20,04,13.10
2020,02,08,20,05,16.10
2020,02,08,20,06,19.00
2020,02,08,20,07,11.60
2020,02,08,20,08,13.50
2020,02,08,20,09,11.10
2020,02,08,20,10,15.20
2020,02,08,20,11,13.60
2020,02,08,20,12,14.80
2020,02,08,20,13,12.40
2020,02,08,20,14,14.10
2020,02,08,20,15,17.10
2020,02,08,20,16,11.20
2020,02,08,20,17,12.60
2020,02,08,20,18,18.40
2020,02,08,20,19,10.90
2020,02,08,20,20,14.70
2020,02,08,20,21,20.30
2020,02,08,20,22,14.60
2020,02,08,20,23,11.80
2020,02,08,20,24,9.80
2020,02,08,20,25,10.00
2020,02,08,20,26,15.90
2020,02,08,20,27,9.70
2020,02,08,20,28,15.00
2020,02,08,20,29,15.40
2020,02,08,20,30,16.40
2020,02,08,20,31,13.30
2020,02,08,20,32,8.90
2020,02,08,20,33,16.80
2020,02,08,20,34,14.60
2020,02,08,20,35,9.30
2020,02,08,20,36,18.20
2020,02,08,20,37,9.30
2020,02,08,20,38,13.30
2020,02,08,20,39,16.90
2020,02,08,20,40,17.10
2020,02,08,20,41,17.30
2020,02,08,20,42,16.10
2020,02,08,20,43,13.80
2020,02,08,20,44,13.90
2020,02,08,20,45,13.40
2020,02,08,20,46,14.40
2020,02,08,20,47,13.50
2020,02,08,20,48,15.30
2020,02,08,20,49,12.20
2020,02,08,20,50,15.90
2020,02,08,20,51,11.30
2020,02,08,20,52,11.40
2020,02,08,20,53,8.80
2020,02,08,20,54,13.60
2020,02,08,20,55,16.20
2020,02,08,20,56,13.40
2020,02,08,20,57,13.10
2020,02,08,20,58,15.00
2020,02,08,20,59,7.10
2020,02,08,21,00,9.40
2020,02,08,21,01,7.20
2020,02,08,21,02,4.90
2020,02,08,21,03,14.80
2020,02,08,21,04,8.80
2020,02,08,21,05,7.80
2020,02,08,21,06,5.50
2020,02,08,21,07,14.60
2020,02,08,21,08,8.00
2020,02,08,21,09,5.20
2020,02,08,21,10,7.40
2020,02,08,21,11,9.90
2020,02,08,21,12,12.70
2020,02,08,21,13,8.70
2020,02,08,21,14,10.10
2020,02,08,21,15,5.10
2020,02,08,21,16,8.40
2020,02,08,21,17,11.80
2020,02,08,21,18,10.90
2020,02,08,21,19,7.80
2020,02,08,21,20,10.10
2020,02,08,21,21,8.20
2020,02,08,21,22,13.20
2020,02,08,21,23,9.80
2020,02,08,21,24,5.20
2020,02,08,21,25,8.40
2020,02,08,21,26,10.60
2020,02,08,21,27,9.10
2020,02,08,21,28,15.20
2020,02,08,21,29,8.90
2020,02,08,21,30,9.30
2020,02,08,21,31,9.60
2020,02,08,21,32,13.50
2020,02,08,21,33,7.60
2020,02,08,21,34,10.90
2020,02,08,21,35,10.30
2020,02,08,21,36,11.10
2020,02,08,21,37,11.70
2020,02,08,21,38,19.30
2020,02,08,21,39,11.40
2020,02,08,21,40,12.50
2020,02,08,21,41,10.30
2020,02,08,21,42,13.10
2020,02,08,21,43,9.20
2020,02,08,21,44,7.40
2020,02,08,21,45,8.50
2020,02,08,21,46,5.30
2020,02,08,21,47,11.30
2020,02,08,21,48,10.20
2020,02,08,21,49,12.60
2020,02,08,21,50,12.60
2020,02,08,21,51,10.30
2020,02,08,21,52,7.60
2020,02,08,21,53,8.40
2020,02,08,21,54,17.20
2020,02,08,21,55,10.40
2020,02,08,21,56,8.10
2020,02,08,21,57,9.50
2020,02,08,21,58,6.60
2020,02,08,21,59,8.50
2020,02,08,22,00,12.40
2020,02,08,22,01,20.20
2020,02,08,22,02,10.80
2020,02,08,22,03,13.30
2020,02,08,22,04,10.70
2020,02,08,22,05,15.10
2020,02,08,22,06,11.80
2020,02,08,22,07,10.00
2020,02,08,22,08,11.40
2020,02,08,22,09,12.70
2020,02,08,22,10,17.80
2020,02,08,22,11,13.80
2020,02,08,22,12,7.40
2020,02,08,22,13,5.90
2020,02,08,22,14,9.60
2020,02,08,22,15,11.00
2020,02,08,22,16,8.40
2020,02,08,22,17,4.20
2020,02,08,22,18,6.20